Weather History for Khon Kaen, Thailand

Change the Weather History Date:

Friday, November 29, 2013

  Actual Average Record
Temperature  
Mean Temperature 74 °F -  
Max Temperature 83 °F 85 °F - ()
Min Temperature 66 °F 62 °F - ()
Cooling Degree Days 10    
Growing Degree Days 24 (Base 50)    
Moisture  
Dew Point 60 °F    
Average Humidity 59    
Maximum Humidity 83    
Minimum Humidity 33    
Precipitation  
Precipitation 0.00 in 0.00 in - ()
Sea Level Pressure  
Sea Level Pressure 30.02 in    
Wind  
Wind Speed 6 mph ()    
Max Wind Speed 12 mph    
Max Gust Speed -    
Visibility 6.1 miles    
Events      
T = Trace of Precipitation, MM = Missing Value Source: Averaged Metar Reports

Daily Weather History Graph

Daily Weather History Graph

Search for Another Location

Airport:

Trip Planner

Search our weather history database for the weather conditions in past years. The results will help you decide how hot, cold, wet, or windy it might be!

Date:

Astronomy

Nov. 29, 2013 Rise Set
Actual Time 6:19 AM ICT 5:34 PM ICT
Civil Twilight 5:56 AM ICT 5:57 PM ICT
Nautical Twilight 5:30 AM ICT 6:23 PM ICT
Astronomical Twilight 5:03 AM ICT 6:50 PM ICT
Moon 2:25 AM ICT (11/29) 2:29 PM ICT (11/29)
Length of Visible Light 12h 00m
Length of Day
11h 14m
Waning Crescent, 18% of the Moon is Illuminated
Nov 29
Waning Crescent
Dec 3
New
Dec 9
First Quarter
Dec 17
Full
Dec 25
Last Quarter

Hourly Weather History & Observations

Time (ICT) Temp. Heat Index Dew Point Humidity Pressure Visibility Wind Dir Wind Speed Gust Speed Precip Events Conditions
1:00 AM 69 °F - 59 °F 62% 30.06 in 6 mi ENE 3.5 mph - -  
1:00 AM 68.0 °F - 60.8 °F 78% 30.06 in - Variable 4.6 mph - N/A   Clear
3:00 AM 66.2 °F - 60.8 °F 83% 30.06 in 5.6 mi East 2.3 mph - N/A   Unknown
4:00 AM 67 °F - 59 °F 69% 30.05 in 6 mi NE 4.6 mph - -   Scattered Clouds
7:00 AM 68 °F - 59 °F 65% 30.09 in 6 mi North 5.8 mph - -   Scattered Clouds
7:00 AM 68.0 °F - 60.8 °F 78% 30.09 in - North 4.6 mph - N/A   Mostly Cloudy
8:00 AM 69.8 °F - 60.8 °F 73% 30.09 in 6.2 mi NNE 8.1 mph - N/A   Scattered Clouds
9:00 AM 71.6 °F - 59.0 °F 64% 30.12 in 6.2 mi NNE 8.1 mph - N/A   Mostly Cloudy
10:00 AM 73 °F - 57 °F 47% 30.09 in 6 mi NE 10.4 mph - -   Scattered Clouds
10:00 AM 73.4 °F - 59.0 °F 61% 30.12 in 6.2 mi ENE 9.2 mph - N/A   Mostly Cloudy
11:00 AM 77.0 °F - 60.8 °F 57% 30.09 in 6.2 mi NE 9.2 mph - N/A   Scattered Clouds
12:00 PM 80.6 °F 81.5 °F 60.8 °F 51% 30.04 in - NNE 10.4 mph - N/A   Clear
1:00 PM 82 °F - 58 °F 33% 29.96 in 6 mi NNE 9.2 mph - -   Clear
1:00 PM 80.6 °F 81.5 °F 60.8 °F 51% 29.98 in - NNE 11.5 mph - N/A   Clear
2:00 PM 82.4 °F 82.9 °F 60.8 °F 48% 29.95 in - ENE 9.2 mph - N/A   Clear
3:00 PM 82.4 °F 82.9 °F 60.8 °F 48% 29.95 in 6.2 mi NE 8.1 mph - N/A   Mostly Cloudy
4:00 PM 82 °F - 59 °F 36% 29.90 in 6 mi NNW 5.8 mph - -   Scattered Clouds
4:00 PM 78.8 °F - 60.8 °F 54% 29.92 in 6.2 mi NNE 6.9 mph - N/A   Partly Cloudy
5:00 PM 80.6 °F 81.5 °F 60.8 °F 51% 29.95 in 6.2 mi NNE 9.2 mph - N/A   Scattered Clouds
6:00 PM 77.0 °F - 60.8 °F 57% 29.95 in - NNE 6.9 mph - N/A   Clear
7:00 PM 75 °F - 59 °F 48% 29.96 in 6 mi NNE 4.6 mph - -   Clear
7:00 PM 73.4 °F - 60.8 °F 65% 29.98 in - NNE 6.9 mph - N/A   Clear
8:00 PM 71.6 °F - 60.8 °F 69% 30.01 in - NNE 8.1 mph - N/A   Clear
10:00 PM 69.8 °F - 60.8 °F 73% 30.04 in - NNE 5.8 mph - N/A   Clear